Location: Guferjoch
(46.7462°N, 8.4506°E)
Time: 12:48:32
(UTC+00:00)

CZ-2D R/B - Pass Details

Date: 14 July 2020
Orbit: 792 x 844 km, 98.7° (Epoch: 06 August)

Event Time Altitude Azimuth Distance (km) Brightness Sun altitude
Rises 00:38:55 0° 19° (NNE) 3,348 7.0 -20.0°
Reaches altitude 10° 00:41:21 10° 25° (NNE) 2,420 5.8 -19.9°
Maximum altitude 00:46:31 47° 99° (E) 1,080 2.8 -19.6°
Enters shadow 00:49:08 27° 158° (SSE) 1,543 3.1 -19.4°
